Regional Weather Roundup
Issued by NWS State College, PA

Home | Current Version | Previous Version | Graphics & Text | Print | Product List | Glossary On
Versions: 1 2 3 4 5 6 7 8 9 10 11 12 13 14 15 16 17 18 19 20 21 22 23 24 25 26 27 28 29 30 31 32 33 34 35 36 37 38 39 40 41 42 43 44 45 46 47 48 49 50
046
ASUS41 KCTP 221303
RWRCTP

REGIONAL WEATHER ROUNDUP
NATIONAL WEATHER SERVICE STATE COLLEGE PA
800 AM EST WED FEB 22 2017

Note: "fair" indicates few or no clouds below 12,000 feet with no
significant weather and/or obstructions to visibility.

* = STATION THAT DOES NOT REPORT PRECIPITATION /E.G. RAIN...SNOW...ETC/
    THUNDER OR FOG.

PAZ002>004-007>009-013>016-020>023-029>032-221400-
WESTERN PENNSYLVANIA

CITY           SKY/WX    TMP DP  RH WIND       PRES   REMARKS
ERIE           CLOUDY    53  46  77 SW6       29.92R
MEADVILLE      CLOUDY    53  46  77 S5        29.93R
FRANKLIN*      CLOUDY    48  43  81 S8        29.96R
NEW CASTLE     CLOUDY    49  48  97 CALM      29.96R
BEAVER COUNTY  NOT AVBL
BUTLER*        MOCLDY    52  43  71 CALM      29.97R
PITTSBURGH INT CLOUDY    54  44  69 CALM      29.96R
PITTSBURGH     CLOUDY    54  39  57 S7        29.96R
INDIANA*       CLOUDY    50  43  76 CALM      30.00R
LATROBE        CLOUDY    50  41  71 CALM      29.99R
WASHINGTON CO* CLOUDY    48  45  87 CALM      29.98S
$$

PAZ004>006-010>012-017>019-024>028-033>037-041-042-045-046-049>053-221400-
CENTRAL PENNSYLVANIA

CITY           SKY/WX    TMP DP  RH WIND       PRES   REMARKS
BRADFORD       FAIR      42  35  76 CALM      29.93F
DUBOIS         CLOUDY    48  33  56 CALM      29.95R
CLEARFIELD       N/A    N/A N/A N/A MISG      29.98R
JOHNSTOWN      CLOUDY    50  38  63 SW6       29.98R
ALTOONA        CLOUDY    46  36  68 CALM      29.99R
STATE COLLEGE  CLOUDY    43  36  75 CALM      29.99R
WILLIAMSPORT   CLOUDY    44  32  62 SE3       30.01R
SELINSGROVE    CLOUDY    43  35  73 CALM      30.02S
FT INDIANTOWN  PTSUNNY   41  40  99 CALM      30.03R
CAPITAL CITY   CLOUDY    43  36  76 E5        30.03R
HARRISBURG     CLOUDY    43  37  79 SE3       30.03R
YORK           PTSUNNY   42  39  89 SE3       30.02R
$$

PAZ038>040-043-044-047-048-054-055-060>062-067>071-221400-
EASTERN PENNSYLVANIA

CITY           SKY/WX    TMP DP  RH WIND       PRES   REMARKS
SCRANTON       LGT RAIN  42  36  79 NE5       30.00R
MOUNT POCONO   CLOUDY    39  33  79 NW6       29.97S
ALLENTOWN      FAIR      41  34  76 CALM      30.04R
QUAKERTOWN*    FAIR      39  36  87 CALM      30.05R
READING        FAIR      42  38  85 CALM      30.04R
LANCASTER      FAIR      42  39  89 SE3       30.03S
COATESVILLE    PTSUNNY   41  37  87 CALM      30.05S
POTTSTOWN      PTSUNNY   41  35  79 CALM      30.06R
BLUE BELL      CLOUDY    41  37  87 CALM      30.05R
DOYLESTOWN     CLOUDY    43  36  76 SW3       30.04R
WILLOW GROVE   NOT AVBL
NORTH PHILA    CLOUDY    43  40  89 CALM      30.07F
PHILADELPHIA   CLOUDY    43  37  79 S5        30.07S
$$




USA.gov is the U.S. government's official web portal to all federal, state and local government web resources and services.